Location: Climax
(33.2048°N, 96.4497°W)
Time: 12:37:14
(UTC+00:00)

Cosmos 1805 Rocket - Pass Details

Date: 04 July 2022
Orbit: 605 x 629 km, 82.5° (Epoch: 12 August)

Event Time Altitude Azimuth Distance (km) Brightness Sun altitude
Exits shadow 10:38:16 11° 244° (WSW) 1,949 5.5 -8.6°
Maximum altitude 10:41:02 17° 284° (WNW) 1,563 5.3 -8.1°
Drops below altitude 10° 10:43:59 10° 326° (NNW) 1,990 6.2 -7.6°
Sets 10:46:53 0° 347° (NNW) 2,895 7.3 -7.1°
